Year,Month,Day,Hour,Minute,Value (Times are PST for temperature in C)
2017,09,05,00,00,19.80
2017,09,05,00,01,19.80
2017,09,05,00,02,19.80
2017,09,05,00,03,19.80
2017,09,05,00,04,19.80
2017,09,05,00,05,19.80
2017,09,05,00,06,19.70
2017,09,05,00,07,19.70
2017,09,05,00,08,19.70
2017,09,05,00,09,19.70
2017,09,05,00,10,19.70
2017,09,05,00,11,19.70
2017,09,05,00,12,19.60
2017,09,05,00,13,19.60
2017,09,05,00,14,19.60
2017,09,05,00,15,19.60
2017,09,05,00,16,19.60
2017,09,05,00,17,19.60
2017,09,05,00,18,19.60
2017,09,05,00,19,19.50
2017,09,05,00,20,19.50
2017,09,05,00,21,19.40
2017,09,05,00,22,19.40
2017,09,05,00,23,19.40
2017,09,05,00,24,19.40
2017,09,05,00,25,19.30
2017,09,05,00,26,19.30
2017,09,05,00,27,19.30
2017,09,05,00,28,19.30
2017,09,05,00,29,19.30
2017,09,05,00,30,19.30
2017,09,05,00,31,19.30
2017,09,05,00,32,19.30
2017,09,05,00,33,19.30
2017,09,05,00,34,19.30
2017,09,05,00,35,19.30
2017,09,05,00,36,19.30
2017,09,05,00,37,19.30
2017,09,05,00,38,19.30
2017,09,05,00,39,19.30
2017,09,05,00,40,19.30
2017,09,05,00,41,19.30
2017,09,05,00,42,19.30
2017,09,05,00,43,19.30
2017,09,05,00,44,19.30
2017,09,05,00,45,19.30
2017,09,05,00,46,19.30
2017,09,05,00,47,19.30
2017,09,05,00,48,19.30
2017,09,05,00,49,19.30
2017,09,05,00,50,19.40
2017,09,05,00,51,19.40
2017,09,05,00,52,19.50
2017,09,05,00,53,19.50
2017,09,05,00,54,19.50
2017,09,05,00,55,19.50
2017,09,05,00,56,19.60
2017,09,05,00,57,19.60
2017,09,05,00,58,19.60
2017,09,05,00,59,19.60
2017,09,05,01,00,19.60
2017,09,05,01,01,19.60
2017,09,05,01,02,19.60
2017,09,05,01,03,19.60
2017,09,05,01,04,19.60
2017,09,05,01,05,19.60
2017,09,05,01,06,19.60
2017,09,05,01,07,19.60
2017,09,05,01,08,19.60
2017,09,05,01,09,19.60
2017,09,05,01,10,19.60
2017,09,05,01,11,19.60
2017,09,05,01,12,19.60
2017,09,05,01,13,19.60
2017,09,05,01,14,19.60
2017,09,05,01,15,19.60
2017,09,05,01,16,19.60
2017,09,05,01,17,19.60
2017,09,05,01,18,19.50
2017,09,05,01,19,19.50
2017,09,05,01,20,19.50
2017,09,05,01,21,19.50
2017,09,05,01,22,19.50
2017,09,05,01,23,19.50
2017,09,05,01,24,19.50
2017,09,05,01,25,19.50
2017,09,05,01,26,19.50
2017,09,05,01,27,19.50
2017,09,05,01,28,19.50
2017,09,05,01,29,19.50
2017,09,05,01,30,19.60
2017,09,05,01,31,19.60
2017,09,05,01,32,19.60
2017,09,05,01,33,19.60
2017,09,05,01,34,19.60
2017,09,05,01,35,19.60
2017,09,05,01,36,19.60
2017,09,05,01,37,19.60
2017,09,05,01,38,19.60
2017,09,05,01,39,19.60
2017,09,05,01,40,19.70
2017,09,05,01,41,19.60
2017,09,05,01,42,19.60
2017,09,05,01,43,19.60
2017,09,05,01,44,19.60
2017,09,05,01,45,19.60
2017,09,05,01,46,19.60
2017,09,05,01,47,19.60
2017,09,05,01,48,19.60
2017,09,05,01,49,19.60
2017,09,05,01,50,19.60
2017,09,05,01,51,19.60
2017,09,05,01,52,19.60
2017,09,05,01,53,19.60
2017,09,05,01,54,19.60
2017,09,05,01,55,19.60
2017,09,05,01,56,19.60
2017,09,05,01,57,19.70
2017,09,05,01,58,19.70
2017,09,05,01,59,19.70
2017,09,05,02,00,19.70
2017,09,05,02,01,19.70
2017,09,05,02,02,19.70
2017,09,05,02,03,19.70
2017,09,05,02,04,19.70
2017,09,05,02,05,19.60
2017,09,05,02,06,19.60
2017,09,05,02,07,19.60
2017,09,05,02,08,19.60
2017,09,05,02,09,19.60
2017,09,05,02,10,19.60
2017,09,05,02,11,19.50
2017,09,05,02,12,19.50
2017,09,05,02,13,19.50
2017,09,05,02,14,19.50
2017,09,05,02,15,19.50
2017,09,05,02,16,19.50
2017,09,05,02,17,19.50
2017,09,05,02,18,19.50
2017,09,05,02,19,19.50
2017,09,05,02,20,19.50
2017,09,05,02,21,19.50
2017,09,05,02,22,19.50
2017,09,05,02,23,19.50
2017,09,05,02,24,19.50
2017,09,05,02,25,19.40
2017,09,05,02,26,19.40
2017,09,05,02,27,19.40
2017,09,05,02,28,19.40
2017,09,05,02,29,19.40
2017,09,05,02,30,19.40
2017,09,05,02,31,19.40
2017,09,05,02,32,19.40
2017,09,05,02,33,19.40
2017,09,05,02,34,19.40
2017,09,05,02,35,19.30
2017,09,05,02,36,19.30
2017,09,05,02,37,19.30
2017,09,05,02,38,19.30
2017,09,05,02,39,19.30
2017,09,05,02,40,19.20
2017,09,05,02,41,19.20
2017,09,05,02,42,19.20
2017,09,05,02,43,19.20
2017,09,05,02,44,19.20
2017,09,05,02,45,19.20
2017,09,05,02,46,19.10
2017,09,05,02,47,19.10
2017,09,05,02,48,19.20
2017,09,05,02,49,19.20
2017,09,05,02,50,19.20
2017,09,05,02,51,19.20
2017,09,05,02,52,19.20
2017,09,05,02,53,19.20
2017,09,05,02,54,19.20
2017,09,05,02,55,19.20
2017,09,05,02,56,19.20
2017,09,05,02,57,19.20
2017,09,05,02,58,19.10
2017,09,05,02,59,19.10
2017,09,05,03,00,19.10
2017,09,05,03,01,19.10
2017,09,05,03,02,19.10
2017,09,05,03,03,19.10
2017,09,05,03,04,19.10
2017,09,05,03,05,19.10
2017,09,05,03,06,19.10
2017,09,05,03,07,19.10
2017,09,05,03,08,19.20
2017,09,05,03,09,19.20
2017,09,05,03,10,19.30
2017,09,05,03,11,19.30
2017,09,05,03,12,19.40
2017,09,05,03,13,19.50
2017,09,05,03,14,19.50
2017,09,05,03,15,19.60
2017,09,05,03,16,19.60
2017,09,05,03,17,19.70
2017,09,05,03,18,19.70
2017,09,05,03,19,19.70
2017,09,05,03,20,19.80
2017,09,05,03,21,19.80
2017,09,05,03,22,19.80
2017,09,05,03,23,19.80
2017,09,05,03,24,19.80
2017,09,05,03,25,19.80
2017,09,05,03,26,19.80
2017,09,05,03,27,19.80
2017,09,05,03,28,19.90
2017,09,05,03,29,19.90
2017,09,05,03,30,19.90
2017,09,05,03,31,19.90
2017,09,05,03,32,19.90
2017,09,05,03,33,19.90
2017,09,05,03,34,19.90
2017,09,05,03,35,19.90
2017,09,05,03,36,19.90
2017,09,05,03,37,19.80
2017,09,05,03,38,19.80
2017,09,05,03,39,19.80
2017,09,05,03,40,19.80
2017,09,05,03,41,19.80
2017,09,05,03,42,19.80
2017,09,05,03,43,19.80
2017,09,05,03,44,19.80
2017,09,05,03,45,19.80
2017,09,05,03,46,19.80
2017,09,05,03,47,19.80
2017,09,05,03,48,19.80
2017,09,05,03,49,19.80
2017,09,05,03,50,19.80
2017,09,05,03,51,19.80
2017,09,05,03,52,19.80
2017,09,05,03,53,19.80
2017,09,05,03,54,19.80
2017,09,05,03,55,19.80
2017,09,05,03,56,19.80
2017,09,05,03,57,19.80
2017,09,05,03,58,19.80
2017,09,05,03,59,19.70
2017,09,05,04,00,19.70
2017,09,05,04,01,19.60
2017,09,05,04,02,19.60
2017,09,05,04,03,19.60
2017,09,05,04,04,19.50
2017,09,05,04,05,19.50
2017,09,05,04,06,19.50
2017,09,05,04,07,19.40
2017,09,05,04,08,19.40
2017,09,05,04,09,19.40
2017,09,05,04,10,19.30
2017,09,05,04,11,19.30
2017,09,05,04,12,19.20
2017,09,05,04,13,19.20
2017,09,05,04,14,19.20
2017,09,05,04,15,19.20
2017,09,05,04,16,19.20
2017,09,05,04,17,19.10
2017,09,05,04,18,19.10
2017,09,05,04,19,19.10
2017,09,05,04,20,19.10
2017,09,05,04,21,19.10
2017,09,05,04,22,19.20
2017,09,05,04,23,19.20
2017,09,05,04,24,19.20
2017,09,05,04,25,19.20
2017,09,05,04,26,19.20
2017,09,05,04,27,19.20
2017,09,05,04,28,19.20
2017,09,05,04,29,19.20
2017,09,05,04,30,19.20
2017,09,05,04,31,19.30
2017,09,05,04,32,19.40
2017,09,05,04,33,19.40
2017,09,05,04,34,19.50
2017,09,05,04,35,19.50
2017,09,05,04,36,19.60
2017,09,05,04,37,19.70
2017,09,05,04,38,19.70
2017,09,05,04,39,19.80
2017,09,05,04,40,19.80
2017,09,05,04,41,19.80
2017,09,05,04,42,19.80
2017,09,05,04,43,19.90
2017,09,05,04,44,19.90
2017,09,05,04,45,19.90
2017,09,05,04,46,19.90
2017,09,05,04,47,20.00
2017,09,05,04,48,20.10
2017,09,05,04,49,20.10
2017,09,05,04,50,20.10
2017,09,05,04,51,20.20
2017,09,05,04,52,20.20
2017,09,05,04,53,20.20
2017,09,05,04,54,20.20
2017,09,05,04,55,20.30
2017,09,05,04,56,20.30
2017,09,05,04,57,20.40
2017,09,05,04,58,20.50
2017,09,05,04,59,20.50
2017,09,05,05,00,20.50
2017,09,05,05,01,20.60
2017,09,05,05,02,20.60
2017,09,05,05,03,20.60
2017,09,05,05,04,20.60
2017,09,05,05,05,20.60
2017,09,05,05,06,20.60
2017,09,05,05,07,20.60
2017,09,05,05,08,20.60
2017,09,05,05,09,20.60
2017,09,05,05,10,20.60
2017,09,05,05,11,20.60
2017,09,05,05,12,20.60
2017,09,05,05,13,20.60
2017,09,05,05,14,20.70
2017,09,05,05,15,20.70
2017,09,05,05,16,20.70
2017,09,05,05,17,20.70
2017,09,05,05,18,20.80
2017,09,05,05,19,20.80
2017,09,05,05,20,20.80
2017,09,05,05,21,20.80
2017,09,05,05,22,20.80
2017,09,05,05,23,20.80
2017,09,05,05,24,20.80
2017,09,05,05,25,20.90
2017,09,05,05,26,20.90
2017,09,05,05,27,20.90
2017,09,05,05,28,20.90
2017,09,05,05,29,20.90
2017,09,05,05,30,20.90
2017,09,05,05,31,21.00
2017,09,05,05,32,21.00
2017,09,05,05,33,21.00
2017,09,05,05,34,21.00
2017,09,05,05,35,21.00
2017,09,05,05,36,20.90
2017,09,05,05,37,20.90
2017,09,05,05,38,20.90
2017,09,05,05,39,20.90
2017,09,05,05,40,20.80
2017,09,05,05,41,20.80
2017,09,05,05,42,20.80
2017,09,05,05,43,20.80
2017,09,05,05,44,20.80
2017,09,05,05,45,20.70
2017,09,05,05,46,20.70
2017,09,05,05,47,20.70
2017,09,05,05,48,20.70
2017,09,05,05,49,20.70
2017,09,05,05,50,20.70
2017,09,05,05,51,20.70
2017,09,05,05,52,20.70
2017,09,05,05,53,20.80
2017,09,05,05,54,20.80
2017,09,05,05,55,20.80
2017,09,05,05,56,20.80
2017,09,05,05,57,20.80
2017,09,05,05,58,20.90
2017,09,05,05,59,20.90
2017,09,05,06,00,21.00
2017,09,05,06,01,21.00
2017,09,05,06,02,21.10
2017,09,05,06,03,21.10
2017,09,05,06,04,21.20
2017,09,05,06,05,21.30
2017,09,05,06,06,21.30
2017,09,05,06,07,21.30
2017,09,05,06,08,21.30
2017,09,05,06,09,21.40
2017,09,05,06,10,21.40
2017,09,05,06,11,21.50
2017,09,05,06,12,21.60
2017,09,05,06,13,21.60
2017,09,05,06,14,21.60
2017,09,05,06,15,21.60
2017,09,05,06,16,21.60
2017,09,05,06,17,21.60
2017,09,05,06,18,21.60
2017,09,05,06,19,21.60
2017,09,05,06,20,21.60
2017,09,05,06,21,21.60
2017,09,05,06,22,21.60
2017,09,05,06,23,21.60
2017,09,05,06,24,21.70
2017,09,05,06,25,21.70
2017,09,05,06,26,21.70
2017,09,05,06,27,21.70
2017,09,05,06,28,21.70
2017,09,05,06,29,21.70
2017,09,05,06,30,21.70
2017,09,05,06,31,21.70
2017,09,05,06,32,21.80
2017,09,05,06,33,21.80
2017,09,05,06,34,21.80
2017,09,05,06,35,21.80
2017,09,05,06,36,21.80
2017,09,05,06,37,21.80
2017,09,05,06,38,21.80
2017,09,05,06,39,21.80
2017,09,05,06,40,21.90
2017,09,05,06,41,21.90
2017,09,05,06,42,21.90
2017,09,05,06,43,21.90
2017,09,05,06,44,21.90
2017,09,05,06,45,21.90
2017,09,05,06,46,21.90
2017,09,05,06,47,21.90
2017,09,05,06,48,21.90
2017,09,05,06,49,21.90
2017,09,05,06,50,22.00
2017,09,05,06,51,22.00
2017,09,05,06,52,22.00
2017,09,05,06,53,22.00
2017,09,05,06,54,22.00
2017,09,05,06,55,22.00
2017,09,05,06,56,22.10
2017,09,05,06,57,22.10
2017,09,05,06,58,22.10
2017,09,05,06,59,22.10
2017,09,05,07,00,22.10
2017,09,05,07,01,22.00
2017,09,05,07,02,22.00
2017,09,05,07,03,22.00
2017,09,05,07,04,22.00
2017,09,05,07,05,22.00
2017,09,05,07,06,22.00
2017,09,05,07,07,22.00
2017,09,05,07,08,22.00
2017,09,05,07,09,22.00
2017,09,05,07,10,22.00
2017,09,05,07,11,22.00
2017,09,05,07,12,22.00
2017,09,05,07,13,22.00
2017,09,05,07,14,22.00
2017,09,05,07,15,22.00
2017,09,05,07,16,22.00
2017,09,05,07,17,22.00
2017,09,05,07,18,22.00
2017,09,05,07,19,22.00
2017,09,05,07,20,22.00
2017,09,05,07,21,22.00
2017,09,05,07,22,22.00
2017,09,05,07,23,22.00
2017,09,05,07,24,22.00
2017,09,05,07,25,22.00
2017,09,05,07,26,21.90
2017,09,05,07,27,21.90
2017,09,05,07,28,21.90
2017,09,05,07,29,21.80
2017,09,05,07,30,21.80
2017,09,05,07,31,21.80
2017,09,05,07,32,21.70
2017,09,05,07,33,21.70
2017,09,05,07,34,21.60
2017,09,05,07,35,21.60
2017,09,05,07,36,21.60
2017,09,05,07,37,21.50
2017,09,05,07,38,21.40
2017,09,05,07,39,21.40
2017,09,05,07,40,21.30
2017,09,05,07,41,21.30
2017,09,05,07,42,21.20
2017,09,05,07,43,21.20
2017,09,05,07,44,21.10
2017,09,05,07,45,21.10
2017,09,05,07,46,21.10
2017,09,05,07,47,21.00
2017,09,05,07,48,21.00
2017,09,05,07,49,21.00
2017,09,05,07,50,20.90
2017,09,05,07,51,20.80
2017,09,05,07,52,20.80
2017,09,05,07,53,20.70
2017,09,05,07,54,20.70
2017,09,05,07,55,20.60
2017,09,05,07,56,20.50
2017,09,05,07,57,20.50
2017,09,05,07,58,20.40
2017,09,05,07,59,20.30
2017,09,05,08,00,20.20
2017,09,05,08,01,20.20
2017,09,05,08,02,20.20
2017,09,05,08,03,20.10
2017,09,05,08,04,20.10
2017,09,05,08,05,20.10
2017,09,05,08,06,20.10
2017,09,05,08,07,20.00
2017,09,05,08,08,19.90
2017,09,05,08,09,19.90
2017,09,05,08,10,20.00
2017,09,05,08,11,20.10
2017,09,05,08,12,20.10
2017,09,05,08,13,20.20
2017,09,05,08,14,20.20
2017,09,05,08,15,20.20
2017,09,05,08,16,20.20
2017,09,05,08,17,20.20
2017,09,05,08,18,20.20
2017,09,05,08,19,20.20
2017,09,05,08,20,20.20
2017,09,05,08,21,20.20
2017,09,05,08,22,20.10
2017,09,05,08,23,20.10
2017,09,05,08,24,20.10
2017,09,05,08,25,20.10
2017,09,05,08,26,20.10
2017,09,05,08,27,20.10
2017,09,05,08,28,20.10
2017,09,05,08,29,20.10
2017,09,05,08,30,20.10
2017,09,05,08,31,20.10
2017,09,05,08,32,20.10
2017,09,05,08,33,20.10
2017,09,05,08,34,20.10
2017,09,05,08,35,20.10
2017,09,05,08,36,20.10
2017,09,05,08,37,20.10
2017,09,05,08,38,20.10
2017,09,05,08,39,20.10
2017,09,05,08,40,20.10
2017,09,05,08,41,20.20
2017,09,05,08,42,20.20
2017,09,05,08,43,20.20
2017,09,05,08,44,20.20
2017,09,05,08,45,20.20
2017,09,05,08,46,20.20
2017,09,05,08,47,20.20
2017,09,05,08,48,20.20
2017,09,05,08,49,20.30
2017,09,05,08,50,20.40
2017,09,05,08,51,20.50
2017,09,05,08,52,20.50
2017,09,05,08,53,20.50
2017,09,05,08,54,20.60
2017,09,05,08,55,20.60
2017,09,05,08,56,20.70
2017,09,05,08,57,20.70
2017,09,05,08,58,20.80
2017,09,05,08,59,20.80
2017,09,05,09,00,20.90
2017,09,05,09,01,21.00
2017,09,05,09,02,21.00
2017,09,05,09,03,21.20
2017,09,05,09,04,21.30
2017,09,05,09,05,21.40
2017,09,05,09,06,21.60
2017,09,05,09,07,21.80
2017,09,05,09,08,22.00
2017,09,05,09,09,22.20
2017,09,05,09,10,22.40
2017,09,05,09,11,22.60
2017,09,05,09,12,22.70
2017,09,05,09,13,22.90
2017,09,05,09,14,23.00
2017,09,05,09,15,23.10
2017,09,05,09,16,23.20
2017,09,05,09,17,23.30
2017,09,05,09,18,23.30
2017,09,05,09,19,23.30
2017,09,05,09,20,23.30
2017,09,05,09,21,23.50
2017,09,05,09,22,23.60
2017,09,05,09,23,23.70
2017,09,05,09,24,23.80
2017,09,05,09,25,23.90
2017,09,05,09,26,23.90
2017,09,05,09,27,24.10
2017,09,05,09,28,24.10
2017,09,05,09,29,24.10
2017,09,05,09,30,24.10
2017,09,05,09,31,24.10
2017,09,05,09,32,24.10
2017,09,05,09,33,24.00
2017,09,05,09,34,23.90
2017,09,05,09,35,23.90
2017,09,05,09,36,23.90
2017,09,05,09,37,23.80
2017,09,05,09,38,23.80
2017,09,05,09,39,23.70
2017,09,05,09,40,23.70
2017,09,05,09,41,23.60
2017,09,05,09,42,23.40
2017,09,05,09,43,23.30
2017,09,05,09,44,23.20
2017,09,05,09,45,23.10
2017,09,05,09,46,23.00
2017,09,05,09,47,22.90
2017,09,05,09,48,22.90
2017,09,05,09,49,22.80
2017,09,05,09,50,22.70
2017,09,05,09,51,22.60
2017,09,05,09,52,22.60
2017,09,05,09,53,22.50
2017,09,05,09,54,22.50
2017,09,05,09,55,22.40
2017,09,05,09,56,22.30
2017,09,05,09,57,22.30
2017,09,05,09,58,22.20
2017,09,05,09,59,22.10
2017,09,05,10,00,22.10
2017,09,05,10,01,22.00
2017,09,05,10,02,22.00
2017,09,05,10,03,21.90
2017,09,05,10,04,21.90
2017,09,05,10,05,21.80
2017,09,05,10,06,21.70
2017,09,05,10,07,21.60
2017,09,05,10,08,21.50
2017,09,05,10,09,21.40
2017,09,05,10,10,21.30
2017,09,05,10,11,21.30
2017,09,05,10,12,21.30
2017,09,05,10,13,21.20
2017,09,05,10,14,21.20
2017,09,05,10,15,21.10
2017,09,05,10,16,21.10
2017,09,05,10,17,21.10
2017,09,05,10,18,21.10
2017,09,05,10,19,21.10
2017,09,05,10,20,21.10
2017,09,05,10,21,21.10
2017,09,05,10,22,21.10
2017,09,05,10,23,21.10
2017,09,05,10,24,21.20
2017,09,05,10,25,21.20
2017,09,05,10,26,21.30
2017,09,05,10,27,21.30
2017,09,05,10,28,21.30
2017,09,05,10,29,21.30
2017,09,05,10,30,21.30
2017,09,05,10,31,21.40
2017,09,05,10,32,21.40
2017,09,05,10,33,21.40
2017,09,05,10,34,21.50
2017,09,05,10,35,21.60
2017,09,05,10,36,21.60
2017,09,05,10,37,21.50
2017,09,05,10,38,21.40
2017,09,05,10,39,21.40
2017,09,05,10,40,21.40
2017,09,05,10,41,21.40
2017,09,05,10,42,21.40
2017,09,05,10,43,21.40
2017,09,05,10,44,21.40
2017,09,05,10,45,21.40
2017,09,05,10,46,21.40
2017,09,05,10,47,21.40
2017,09,05,10,48,21.40
2017,09,05,10,49,21.40
2017,09,05,10,50,21.40
2017,09,05,10,51,21.60
2017,09,05,10,52,21.60
2017,09,05,10,53,21.60
2017,09,05,10,54,21.60
2017,09,05,10,55,21.60
2017,09,05,10,56,21.60
2017,09,05,10,57,21.60
2017,09,05,10,58,21.60
2017,09,05,10,59,21.70
2017,09,05,11,00,21.80
2017,09,05,11,01,21.80
2017,09,05,11,02,21.90
2017,09,05,11,03,21.90
2017,09,05,11,04,21.90
2017,09,05,11,05,22.00
2017,09,05,11,06,22.00
2017,09,05,11,07,22.10
2017,09,05,11,08,22.20
2017,09,05,11,09,22.30
2017,09,05,11,10,22.40
2017,09,05,11,11,22.50
2017,09,05,11,12,22.60
2017,09,05,11,13,22.70
2017,09,05,11,14,22.70
2017,09,05,11,15,22.80
2017,09,05,11,16,22.80
2017,09,05,11,17,22.80
2017,09,05,11,18,22.90
2017,09,05,11,19,22.90
2017,09,05,11,20,22.90
2017,09,05,11,21,22.90
2017,09,05,11,22,23.00
2017,09,05,11,23,23.10
2017,09,05,11,24,23.20
2017,09,05,11,25,23.30
2017,09,05,11,26,23.30
2017,09,05,11,27,23.30
2017,09,05,11,28,23.30
2017,09,05,11,29,23.30
2017,09,05,11,30,23.30
2017,09,05,11,31,23.30
2017,09,05,11,32,23.30
2017,09,05,11,33,23.30
2017,09,05,11,34,23.30
2017,09,05,11,35,23.30
2017,09,05,11,36,23.40
2017,09,05,11,37,23.40
2017,09,05,11,38,23.40
2017,09,05,11,39,23.40
2017,09,05,11,40,23.40
2017,09,05,11,41,23.40
2017,09,05,11,42,23.40
2017,09,05,11,43,23.60
2017,09,05,11,44,23.60
2017,09,05,11,45,23.70
2017,09,05,11,46,23.70
2017,09,05,11,47,23.80
2017,09,05,11,48,23.90
2017,09,05,11,49,24.00
2017,09,05,11,50,24.10
2017,09,05,11,51,24.20
2017,09,05,11,52,24.30
2017,09,05,11,53,24.40
2017,09,05,11,54,24.50
2017,09,05,11,55,24.50
2017,09,05,11,56,24.60
2017,09,05,11,57,24.70
2017,09,05,11,58,24.80
2017,09,05,11,59,24.80
2017,09,05,12,00,24.90
2017,09,05,12,01,24.90
2017,09,05,12,02,24.90
2017,09,05,12,03,24.90
2017,09,05,12,04,24.90
2017,09,05,12,05,24.90
2017,09,05,12,06,24.90
2017,09,05,12,07,24.90
2017,09,05,12,08,24.90
2017,09,05,12,09,24.90
2017,09,05,12,10,24.90
2017,09,05,12,11,24.80
2017,09,05,12,12,24.70
2017,09,05,12,13,24.60
2017,09,05,12,14,24.50
2017,09,05,12,15,24.50
2017,09,05,12,16,24.40
2017,09,05,12,17,24.40
2017,09,05,12,18,24.40
2017,09,05,12,19,24.30
2017,09,05,12,20,24.30
2017,09,05,12,21,24.30
2017,09,05,12,22,24.30
2017,09,05,12,23,24.30
2017,09,05,12,24,24.30
2017,09,05,12,25,24.30
2017,09,05,12,26,24.30
2017,09,05,12,27,24.30
2017,09,05,12,28,24.30
2017,09,05,12,29,24.30
2017,09,05,12,30,24.30
2017,09,05,12,31,24.30
2017,09,05,12,32,24.30
2017,09,05,12,33,24.30
2017,09,05,12,34,24.20
2017,09,05,12,35,24.20
2017,09,05,12,36,24.10
2017,09,05,12,37,24.10
2017,09,05,12,38,24.10
2017,09,05,12,39,24.10
2017,09,05,12,40,24.10
2017,09,05,12,41,24.10
2017,09,05,12,42,24.00
2017,09,05,12,43,23.90
2017,09,05,12,44,23.90
2017,09,05,12,45,23.90
2017,09,05,12,46,23.90
2017,09,05,12,47,23.90
2017,09,05,12,48,23.90
2017,09,05,12,49,23.90
2017,09,05,12,50,23.90
2017,09,05,12,51,24.00
2017,09,05,12,52,24.10
2017,09,05,12,53,24.10
2017,09,05,12,54,24.10
2017,09,05,12,55,24.10
2017,09,05,12,56,24.10
2017,09,05,12,57,24.20
2017,09,05,12,58,24.20
2017,09,05,12,59,24.20
2017,09,05,13,00,24.20
2017,09,05,13,01,24.30
2017,09,05,13,02,24.30
2017,09,05,13,03,24.30
2017,09,05,13,04,24.40
2017,09,05,13,05,24.40
2017,09,05,13,06,24.40
2017,09,05,13,07,24.50
2017,09,05,13,08,24.50
2017,09,05,13,09,24.60
2017,09,05,13,10,24.70
2017,09,05,13,11,24.70
2017,09,05,13,12,24.80
2017,09,05,13,13,24.80
2017,09,05,13,14,24.80
2017,09,05,13,15,24.90
2017,09,05,13,16,24.90
2017,09,05,13,17,25.00
2017,09,05,13,18,25.00
2017,09,05,13,19,25.10
2017,09,05,13,20,25.20
2017,09,05,13,21,25.30
2017,09,05,13,22,25.30
2017,09,05,13,23,25.40
2017,09,05,13,24,25.40
2017,09,05,13,25,25.40
2017,09,05,13,26,25.40
2017,09,05,13,27,25.40
2017,09,05,13,28,25.30
2017,09,05,13,29,25.30
2017,09,05,13,30,25.30
2017,09,05,13,31,25.40
2017,09,05,13,32,25.40
2017,09,05,13,33,25.40
2017,09,05,13,34,25.40
2017,09,05,13,35,25.50
2017,09,05,13,36,25.50
2017,09,05,13,37,25.50
2017,09,05,13,38,25.50
2017,09,05,13,39,25.40
2017,09,05,13,40,25.10
2017,09,05,13,41,24.80
2017,09,05,13,42,24.60
2017,09,05,13,43,24.40
2017,09,05,13,44,24.20
2017,09,05,13,45,24.00
2017,09,05,13,46,23.80
2017,09,05,13,47,23.70
2017,09,05,13,48,23.60
2017,09,05,13,49,23.60
2017,09,05,13,50,23.50
2017,09,05,13,51,23.40
2017,09,05,13,52,23.40
2017,09,05,13,53,23.40
2017,09,05,13,54,23.40
2017,09,05,13,55,23.40
2017,09,05,13,56,23.40
2017,09,05,13,57,23.60
2017,09,05,13,58,23.60
2017,09,05,13,59,23.70
2017,09,05,14,00,23.70
2017,09,05,14,01,23.70
2017,09,05,14,02,23.80
2017,09,05,14,03,23.90
2017,09,05,14,04,23.90
2017,09,05,14,05,24.00
2017,09,05,14,06,24.10
2017,09,05,14,07,24.10
2017,09,05,14,08,24.20
2017,09,05,14,09,24.30
2017,09,05,14,10,24.30
2017,09,05,14,11,24.40
2017,09,05,14,12,24.40
2017,09,05,14,13,24.50
2017,09,05,14,14,24.50
2017,09,05,14,15,24.60
2017,09,05,14,16,24.60
2017,09,05,14,17,24.70
2017,09,05,14,18,24.70
2017,09,05,14,19,24.70
2017,09,05,14,20,24.70
2017,09,05,14,21,24.60
2017,09,05,14,22,24.50
2017,09,05,14,23,24.50
2017,09,05,14,24,24.40
2017,09,05,14,25,24.30
2017,09,05,14,26,24.20
2017,09,05,14,27,24.20
2017,09,05,14,28,24.10
2017,09,05,14,29,24.10
2017,09,05,14,30,24.10
2017,09,05,14,31,24.10
2017,09,05,14,32,24.10
2017,09,05,14,33,24.10
2017,09,05,14,34,24.10
2017,09,05,14,35,24.10
2017,09,05,14,36,23.90
2017,09,05,14,37,23.90
2017,09,05,14,38,23.90
2017,09,05,14,39,23.90
2017,09,05,14,40,23.90
2017,09,05,14,41,23.80
2017,09,05,14,42,23.80
2017,09,05,14,43,23.80
2017,09,05,14,44,23.70
2017,09,05,14,45,23.70
2017,09,05,14,46,23.70
2017,09,05,14,47,23.70
2017,09,05,14,48,23.70
2017,09,05,14,49,23.70
2017,09,05,14,50,23.70
2017,09,05,14,51,23.70
2017,09,05,14,52,23.70
2017,09,05,14,53,23.70
2017,09,05,14,54,23.60
2017,09,05,14,55,23.60
2017,09,05,14,56,23.40
2017,09,05,14,57,23.40
2017,09,05,14,58,23.30
2017,09,05,14,59,23.20
2017,09,05,15,00,23.10
2017,09,05,15,01,23.00
2017,09,05,15,02,22.90
2017,09,05,15,03,22.90
2017,09,05,15,04,22.90
2017,09,05,15,05,22.90
2017,09,05,15,06,22.90
2017,09,05,15,07,22.80
2017,09,05,15,08,22.60
2017,09,05,15,09,22.60
2017,09,05,15,10,22.50
2017,09,05,15,11,22.60
2017,09,05,15,12,22.70
2017,09,05,15,13,22.80
2017,09,05,15,14,22.90
2017,09,05,15,15,23.00
2017,09,05,15,16,23.20
2017,09,05,15,17,23.30
2017,09,05,15,18,23.60
2017,09,05,15,19,23.80
2017,09,05,15,20,24.00
2017,09,05,15,21,24.10
2017,09,05,15,22,24.10
2017,09,05,15,23,24.10
2017,09,05,15,24,24.10
2017,09,05,15,25,24.10
2017,09,05,15,26,24.10
2017,09,05,15,27,24.10
2017,09,05,15,28,24.10
2017,09,05,15,29,24.10
2017,09,05,15,30,24.10
2017,09,05,15,31,24.10
2017,09,05,15,32,24.20
2017,09,05,15,33,24.20
2017,09,05,15,34,24.20
2017,09,05,15,35,24.20
2017,09,05,15,36,24.30
2017,09,05,15,37,24.30
2017,09,05,15,38,24.30
2017,09,05,15,39,24.30
2017,09,05,15,40,24.30
2017,09,05,15,41,24.40
2017,09,05,15,42,24.40
2017,09,05,15,43,24.40
2017,09,05,15,44,24.40
2017,09,05,15,45,24.50
2017,09,05,15,46,24.50
2017,09,05,15,47,24.50
2017,09,05,15,48,24.50
2017,09,05,15,49,24.40
2017,09,05,15,50,24.40
2017,09,05,15,51,24.50
2017,09,05,15,52,24.50
2017,09,05,15,53,24.60
2017,09,05,15,54,24.70
2017,09,05,15,55,24.70
2017,09,05,15,56,24.80
2017,09,05,15,57,24.80
2017,09,05,15,58,24.70
2017,09,05,15,59,24.70
2017,09,05,16,00,24.70
2017,09,05,16,01,24.70
2017,09,05,16,02,24.70
2017,09,05,16,03,24.70
2017,09,05,16,04,24.70
2017,09,05,16,05,24.70
2017,09,05,16,06,24.60
2017,09,05,16,07,24.50
2017,09,05,16,08,24.40
2017,09,05,16,09,24.40
2017,09,05,16,10,24.30
2017,09,05,16,11,24.20
2017,09,05,16,12,24.10
2017,09,05,16,13,24.10
2017,09,05,16,14,24.00
2017,09,05,16,15,23.90
2017,09,05,16,16,23.80
2017,09,05,16,17,23.80
2017,09,05,16,18,23.70
2017,09,05,16,19,23.70
2017,09,05,16,20,23.60
2017,09,05,16,21,23.40
2017,09,05,16,22,23.30
2017,09,05,16,23,23.30
2017,09,05,16,24,23.20
2017,09,05,16,25,23.10
2017,09,05,16,26,22.90
2017,09,05,16,27,22.90
2017,09,05,16,28,22.80
2017,09,05,16,29,22.80
2017,09,05,16,30,22.70
2017,09,05,16,31,22.70
2017,09,05,16,32,22.60
2017,09,05,16,33,22.60
2017,09,05,16,34,22.60
2017,09,05,16,35,22.50
2017,09,05,16,36,22.50
2017,09,05,16,37,22.50
2017,09,05,16,38,22.50
2017,09,05,16,39,22.50
2017,09,05,16,40,22.50
2017,09,05,16,41,22.50
2017,09,05,16,42,22.50
2017,09,05,16,43,22.50
2017,09,05,16,44,22.60
2017,09,05,16,45,22.60
2017,09,05,16,46,22.60
2017,09,05,16,47,22.70
2017,09,05,16,48,22.70
2017,09,05,16,49,22.80
2017,09,05,16,50,22.80
2017,09,05,16,51,22.90
2017,09,05,16,52,22.90
2017,09,05,16,53,22.90
2017,09,05,16,54,23.00
2017,09,05,16,55,23.10
2017,09,05,16,56,23.10
2017,09,05,16,57,23.10
2017,09,05,16,58,23.20
2017,09,05,16,59,23.20
2017,09,05,17,00,23.20
2017,09,05,17,01,23.20
2017,09,05,17,02,23.20
2017,09,05,17,03,23.20
2017,09,05,17,04,23.30
2017,09,05,17,05,23.30
2017,09,05,17,06,23.30
2017,09,05,17,07,23.30
2017,09,05,17,08,23.30
2017,09,05,17,09,23.30
2017,09,05,17,10,23.30
2017,09,05,17,11,23.30
2017,09,05,17,12,23.30
2017,09,05,17,13,23.40
2017,09,05,17,14,23.40
2017,09,05,17,15,23.40
2017,09,05,17,16,23.40
2017,09,05,17,17,23.40
2017,09,05,17,18,23.40
2017,09,05,17,19,23.40